RH
5 6 9 12 17 19 25 29 31 35 40 47 48 53 58 66 69 80 77 74 71 82 78 68 69 61 58 64 67 62 61 57 47 44 43 38 21 40 43 35 20 16 16 15 23 28 18 16 16
5 6 6 8 11 13 18 22 25 29 38 40 45 52 54 65 68 65 70 71 78 84 88 77 72 69 66 69 71 63 59 56 47 47 42 47 31 21 39 48 40 26 17 11 12 13 13 14 21
8 7 8 8 9 9 12 14 18 21 30 27 41 51 51 60 64 63 69 71 76 81 92 86 79 75 71 72 76 63 62 60 55 48 45 53 54 35 24 31 59 46 32 22 11 10 11 15 20
9 9 9 9 10 11 12 11 11 14 16 21 37 40 43 52 57 61 64 62 66 79 86 90 85 82 78 78 75 64 62 59 57 48 50 51 68 62 43 31 41 56 42 30 24 20 18 17 20
11 10 11 11 13 13 13 13 13 12 13 17 24 37 34 41 46 53 57 56 57 63 83 89 82 82 81 78 77 70 70 63 59 52 49 50 56 65 54 39 24 27 27 38 45 24 23 29 30
14 12 12 12 13 14 14 14 14 15 17 22 23 22 23 28 34 42 43 46 51 57 63 75 84 79 78 80 81 78 76 73 73 60 55 56 56 62 71 58 36 20 17 22 23 21 24 31 36
12 12 13 12 13 14 14 14 15 15 15 19 22 26 23 19 22 24 32 37 44 52 57 61 67 73 77 78 78 81 82 81 76 72 63 62 64 69 73 75 58 41 16 14 15 21 24 30 40
10 11 12 12 12 13 13 13 13 14 15 18 21 22 25 25 25 22 22 25 30 31 36 50 60 64 67 72 78 79 81 86 85 77 72 68 67 69 77 81 74 61 36 19 15 18 22 31 41
8 8 8 12 13 13 14 14 14 14 17 19 23 23 22 21 20 23 27 30 28 26 28 35 43 54 60 65 70 75 80 82 85 84 81 75 72 70 71 82 80 78 68 38 21 18 16 17 27
9 7 7 10 12 13 14 15 15 15 17 19 19 19 17 17 16 14 13 13 16 24 32 30 32 43 48 58 65 70 74 77 80 86 85 84 77 69 73 74 78 79 87 70 43 30 23 21 19
10 9 9 11 12 13 13 15 16 17 18 20 19 19 16 14 13 12 12 11 11 12 13 17 29 35 46 49 58 66 71 74 75 77 85 84 84 82 77 82 78 74 80 81 70 55 40 33 31
11 12 12 13 13 13 15 16 17 18 20 20 20 19 17 17 16 16 14 13 12 11 11 12 13 17 27 43 54 56 63 71 75 75 72 77 84 82 81 79 81 72 67 67 63 66 59 49 44
14 15 14 15 15 15 16 16 18 20 21 20 20 19 18 17 17 16 15 14 14 13 12 12 12 13 16 20 28 53 59 60 71 79 79 83 84 85 83 82 84 81 66 59 52 51 68 74 50
13 15 15 15 16 17 18 17 18 20 20 20 19 19 18 17 16 15 14 14 15 15 15 14 13 13 13 15 18 25 37 58 70 74 75 77 79 79 86 86 88 91 85 61 54 56 65 71 62
15 14 14 15 16 17 19 19 21 21 21 20 19 19 18 17 16 15 15 14 14 14 15 15 16 15 14 14 14 16 22 32 49 67 79 77 75 76 83 90 98 92 91 84 68 72 73 69 65
15 14 14 14 16 17 18 15 22 23 21 20 20 19 19 19 18 16 16 15 14 14 14 14 14 15 16 16 15 14 15 19 26 39 58 73 77 83 92 89 95 93 96 91 88 80 77 67 52
16 14 16 16 15 16 18 18 22 22 22 21 20 20 19 19 18 17 16 16 15 15 15 14 14 14 15 16 17 16 15 15 16 21 30 50 65 75 81 86 92 92 92 97 97 95 92 75 56
17 17 19 17 18 17 16 17 21 21 21 20 20 20 20 19 19 18 17 16 16 15 15 15 15 15 15 15 16 17 17 16 15 15 18 22 36 57 72 80 89 88 95 87 98 99 98 94 79
20 20 20 20 21 20 19 18 20 22 22 22 22 21 21 21 21 20 19 18 17 16 16 15 15 15 15 16 16 16 18 18 17 16 15 16 18 23 42 64 77 81 89 87 96 94 97 97 98
24 24 23 22 22 21 19 19 19 24 24 24 24 24 23 23 23 22 21 20 19 18 18 17 17 16 16 16 16 17 17 19 19 18 17 15 15 16 17 26 49 70 79 77 86 94 98 97 99
26 27 24 22 22 20 20 17 18 26 26 25 25 26 25 25 25 24 22 21 20 20 19 20 19 19 19 19 18 18 18 19 20 21 21 19 17 16 15 14 17 34 56 69 90 86 91 98 98
27 25 24 24 23 25 20 19 15 21 23 23 24 24 24 24 23 22 21 20 19 19 19 19 19 20 21 21 21 21 22 22 21 21 21 22 21 19 17 15 13 14 25 44 58 81 94 97 98
26 25 24 25 27 28 23 26 14 22 22 23 24 24 24 25 24 23 21 21 21 21 22 21 22 22 22 22 24 25 23 23 23 24 24 24 24 21 19 18 16 14 13 20 37 56 70 96 98
26 26 26 27 29 39 24 25 15 21 27 28 28 26 26 27 27 26 26 27 27 27 26 25 24 23 22 22 23 24 26 27 26 25 25 27 28 27 23 20 18 16 15 14 16 29 44 63 95
28 30 38 42 52 31 25 26 21 27 25 28 28 29 31 32 34 33 34 35 36 34 31 29 26 25 23 21 21 22 24 26 28 30 29 28 28 31 30 24 21 19 17 16 15 15 23 38 69
31 32 33 32 23 21 29 33 24 30 32 35 35 36 38 40 41 41 40 38 38 36 34 32 29 27 26 24 23 22 22 23 25 29 30 31 31 31 34 32 27 22 20 17 16 15 15 20 31
36 39 34 39 30 46 28 32 38 36 40 37 36 40 43 43 44 45 44 43 41 39 37 34 32 30 28 27 26 25 25 24 24 26 30 31 31 33 32 35 33 28 24 20 17 15 14 14 18
34 35 42 46 52 46 35 42 45 44 41 40 43 46 47 47 44 43 45 47 46 44 42 40 37 33 31 30 29 28 28 29 29 29 30 32 36 32 32 33 37 36 29 25 21 17 15 14 13
43 43 44 49 54 60 57 47 54 48 42 50 50 55 56 50 48 48 47 47 47 47 45 42 38 35 34 33 33 33 33 34 35 36 34 34 33 37 35 33 37 38 39 32 27 22 18 16 14
44 49 53 66 55 64 76 62 49 45 50 55 58 61 59 56 53 51 49 49 48 49 48 43 40 39 36 34 35 36 38 40 42 42 41 40 36 35 36 40 36 38 38 39 34 29 25 20 18